Regional Weather Roundup
Issued by NWS

Home | Current Version | Previous Version | Graphics & Text | Print | Product List | Glossary On
Versions: 1 2 3 4 5 6 7 8 9 10 11 12 13 14 15 16 17 18 19 20 21 22 23 24 25 26 27 28 29 30 31 32 33 34 35 36 37 38 39 40 41 42 43 44 45 46 47 48 49 50
000
ASUS43 KIND 202159
RWRIN

WEATHER ROUNDUP FOR INDIANA
NATIONAL WEATHER SERVICE INDIANAPOLIS IN
600 PM EDT MON APR 20 2015

NOTE: "FAIR" INDICATES FEW OR NO CLOUDS BELOW 12,000 FEET WITH NO
SIGNIFICANT WEATHER AND/OR OBSTRUCTIONS TO VISIBILITY.

* - STATION DOES NOT REPORT WEATHER SUCH AS PRECIPITATION OR FOG.

+ - STATION NOT QUALITY CONTROLLED BY THE NATIONAL WEATHER SERVICE.
    USE DATA WITH CAUTION...ESPECIALLY DEWPOINT AND RELATIVE
    HUMIDITY OBSERVATIONS.

INZ001>003-010>013-019-020-202300-
NORTHWEST INDIANA

CITY           SKY/WX    TMP DP  RH WIND       PRES   REMARKS
GARY /AIRPORT/ CLOUDY    50  30  46 W28G44    29.55R
RENSSELAER +   CLOUDY    50  37  62 W21G30    29.59R

$$

LMZ046-743>745-202300-
SOUTHERN LAKE MICHIGAN

STATION/POSITION TIME  TEMP    WIND        PRES    WAVE
                       AIR SEA DIR/SP/G            HT
                 (UTC) (F)     (DEG/KT/KT) (MB)    (FT)
BURNS HARBOR     2100   48     260/ 24/ 28 1000.3R
MICHIGAN CITY    2100   45     230/ 28/ 33   N/A
5NW MICH CITY    2100   45 44  270/ 16/ 25   N/A     6

$$

INZ004-005-014>016-021>024-202300-
NORTH CENTRAL INDIANA

CITY           SKY/WX    TMP DP  RH WIND       PRES   REMARKS
ELKHART        CLOUDY    48  36  61 W17G25    29.53R
GOSHEN         CLOUDY    49  39  68 W24G30    29.53R
SOUTH BEND     CLOUDY    49  36  61 W21G28    29.54R

$$

INZ006>009-017-018-025>027-202300-
NORTHEAST INDIANA

CITY           SKY/WX    TMP DP  RH WIND       PRES   REMARKS
ANGOLA *+      CLOUDY    46  41  81 W22G30    29.51R
FORT WAYNE     CLOUDY    49  42  77 W23G31    29.56R

$$

INZ028-029-035-036-043>045-051>053-202300-
WEST CENTRAL INDIANA

CITY           SKY/WX    TMP DP  RH WIND       PRES   REMARKS
CRAWFORDSVL +  CLOUDY    48  31  52 W16G33    29.65R
GREENCASTLE +  CLOUDY    50  32  50 W18G29    29.67R
LAFAYETTE      CLOUDY    50  35  56 W20G33    29.61R
TERRE HAUTE    CLOUDY    52  36  54 W23G29    29.70R

$$

INZ030>032-037>040-046>048-054>057-064-065-202300-
CENTRAL INDIANA

CITY           SKY/WX    TMP DP  RH WIND       PRES   REMARKS
COLUMBUS       MOSUNNY   55  32  41 W24G37    29.66R
INDIANAPOLIS   CLOUDY    52  36  54 W18G32    29.63R
-EAGLE CREEK   CLOUDY    51  36  56 W14G32    29.64R
KOKOMO *+      MOSUNNY   50  39  66 W26G33    29.61R
MT COMFORT *+  MOSUNNY   52  28  40 W24G35    29.64R
SHELBYVILLE    CLOUDY    56  38  50 W22G33    29.64R

$$

INZ033-034-041-042-049-050-058-059-202300-
EAST CENTRAL INDIANA

CITY           SKY/WX    TMP DP  RH WIND       PRES   REMARKS
MUNCIE         LGT RAIN  50  40  68 W25G36    29.61R

$$

INZ060-061-067>069-081>083-085>088-202300-
SOUTHWEST INDIANA

CITY           SKY/WX    TMP DP  RH WIND       PRES   REMARKS
EVANSVILLE     CLOUDY    59  38  45 W16G25    29.74R
HUNTINGBURG *+ CLOUDY    57  39  51 W22G28    29.73R

$$

INZ062-063-066-070>080-084-089>092-202300-
SOUTH CENTRAL AND SOUTHEAST INDIANA

CITY           SKY/WX    TMP DP  RH WIND       PRES   REMARKS
BLOOMINGTON    CLOUDY    54  37  52 W13G22    29.68R
MADISON *+     CLOUDY    55  36  47 W13G26    29.68R

$$




USA.gov is the U.S. government's official web portal to all federal, state and local government web resources and services.